Location: Newark
(47.4333°N, 19.2500°E)
Time: 15:17:13
(UTC+00:00)

ISS - Pass Details

Date: 12 March 2021
Orbit: 418 x 422 km, 51.6° (Epoch: 17 April)

Event Time Altitude Azimuth Distance (km) Brightness Sun altitude
Exits shadow 03:15:33 30° 179° (S) 784 -2.6 -18.7°
Drops below altitude 10° 03:17:43 10° 147° (SSE) 1,488 -0.8 -18.3°
Sets 03:19:54 0° 139° (SE) 2,348 0.4 -18.0°
